JAL190 RJNK-RJTT

Flight info

Callsign JAL190
Flight time 0h 54m
Altitude 23000
Route OHNNO Y383 KCC Y295 GAKKI Y71 XAC
Aircraft MD11/H-Q/LB1D1

Departure

Time 2026-05-05 09:50
Airport Komatsu Airport / JASDF Komatsu Air Base (RJNK)

Arrival

Time 2026-05-05 10:45
Airport Tokyo Haneda International Airport (RJTT)
Time Latitude Longitude Altitude Speed Heading
2026-05-05 09:18 36.40146 136.41442 33 ft 0 kts 325°
2026-05-05 09:37 36.40145 136.41442 33 ft 1 kts 325°
2026-05-05 09:38 36.40125 136.41460 31 ft 4 kts 321°
2026-05-05 09:38 36.40106 136.41482 33 ft 4 kts 309°
2026-05-05 09:38 36.40092 136.41507 36 ft 4 kts 281°
2026-05-05 09:38 36.40091 136.41529 34 ft 2 kts 236°
2026-05-05 09:39 36.40092 136.41531 34 ft 3 kts 236°
2026-05-05 09:44 36.40091 136.41528 34 ft 2 kts 236°
2026-05-05 09:44 36.40068 136.41488 35 ft 12 kts 236°
2026-05-05 09:44 36.39992 136.41349 33 ft 25 kts 236°
2026-05-05 09:44 36.39907 136.41196 33 ft 21 kts 234°
2026-05-05 09:45 36.39825 136.41049 33 ft 20 kts 236°
2026-05-05 09:45 36.39752 136.40917 36 ft 18 kts 236°
2026-05-05 09:45 36.39683 136.40792 37 ft 18 kts 236°
2026-05-05 09:45 36.39614 136.40668 39 ft 17 kts 235°
2026-05-05 09:46 36.39544 136.40542 37 ft 18 kts 235°
2026-05-05 09:46 36.39470 136.40409 36 ft 19 kts 235°
2026-05-05 09:46 36.39390 136.40265 34 ft 21 kts 235°
2026-05-05 09:46 36.39304 136.40110 34 ft 22 kts 235°
2026-05-05 09:47 36.39216 136.39955 33 ft 22 kts 236°
2026-05-05 09:47 36.39130 136.39798 36 ft 21 kts 236°
2026-05-05 09:47 36.39051 136.39653 37 ft 20 kts 235°
2026-05-05 09:47 36.38974 136.39516 39 ft 18 kts 234°
2026-05-05 09:48 36.38882 136.39431 37 ft 16 kts 194°
2026-05-05 09:48 36.38859 136.39431 36 ft 1 kts 161°
2026-05-05 09:48 36.38847 136.39441 34 ft 6 kts 150°
2026-05-05 09:48 36.38792 136.39487 34 ft 12 kts 144°
2026-05-05 09:49 36.38734 136.39539 35 ft 0 kts 140°
2026-05-05 09:49 36.38733 136.39542 36 ft 1 kts 129°
2026-05-05 09:49 36.38733 136.39555 36 ft 1 kts 88°
2026-05-05 09:49 36.38735 136.39560 36 ft 1 kts 70°
2026-05-05 09:50 36.38756 136.39601 38 ft 22 kts 58°
2026-05-05 09:50 36.39065 136.40162 34 ft 133 kts 54°
2026-05-05 09:50 36.39711 136.41349 420 ft 183 kts 55°
2026-05-05 09:50 36.40506 136.42646 1461 ft 198 kts 41°
2026-05-05 09:51 36.41826 136.43211 2446 ft 213 kts 353°
2026-05-05 09:51 36.43185 136.42464 3425 ft 221 kts 315°
2026-05-05 09:51 36.44007 136.40766 3996 ft 248 kts 281°
2026-05-05 09:51 36.43999 136.38591 4661 ft 256 kts 251°
2026-05-05 09:52 36.43405 136.36489 5633 ft 259 kts 245°
2026-05-05 09:52 36.42744 136.34387 6709 ft 263 kts 248°
2026-05-05 09:52 36.42113 136.32242 7715 ft 266 kts 246°
2026-05-05 09:52 36.41259 136.30201 8746 ft 268 kts 234°
2026-05-05 09:53 36.39971 136.28563 9774 ft 272 kts 215°
2026-05-05 09:53 36.38202 136.27566 10321 ft 297 kts 193°
2026-05-05 09:53 36.36015 136.27657 10464 ft 337 kts 167°
2026-05-05 09:53 36.33792 136.28895 10890 ft 360 kts 152°
2026-05-05 09:54 36.31661 136.30593 11814 ft 367 kts 148°
2026-05-05 09:54 36.29532 136.32385 12808 ft 371 kts 148°
2026-05-05 09:54 36.27371 136.34183 13746 ft 377 kts 149°
2026-05-05 09:54 36.25165 136.35971 14619 ft 381 kts 150°
2026-05-05 09:55 36.22918 136.37752 15507 ft 384 kts 150°
2026-05-05 09:55 36.20643 136.39529 16353 ft 388 kts 151°
2026-05-05 09:55 36.18337 136.41311 17222 ft 392 kts 150°
2026-05-05 09:55 36.16003 136.43106 18058 ft 396 kts 150°
2026-05-05 09:56 36.13651 136.44909 18841 ft 400 kts 151°
2026-05-05 09:56 36.11270 136.46730 19545 ft 406 kts 151°
2026-05-05 09:56 36.08851 136.48578 20243 ft 411 kts 151°
2026-05-05 09:56 36.06430 136.50427 20923 ft 417 kts 151°
2026-05-05 09:57 36.03949 136.52321 21602 ft 422 kts 152°
2026-05-05 09:57 36.01411 136.54256 22018 ft 433 kts 152°
2026-05-05 09:57 35.98847 136.56212 22399 ft 432 kts 152°
2026-05-05 09:57 35.96284 136.58168 22812 ft 435 kts 152°
2026-05-05 09:58 35.93688 136.60143 23025 ft 440 kts 152°
2026-05-05 09:58 35.91128 136.62086 23061 ft 419 kts 153°
2026-05-05 09:58 35.88591 136.63694 23077 ft 406 kts 160°
2026-05-05 09:58 35.85992 136.64999 23085 ft 402 kts 163°
2026-05-05 09:59 35.83367 136.66182 23082 ft 401 kts 165°
2026-05-05 09:59 35.80734 136.67331 23093 ft 401 kts 165°
2026-05-05 09:59 35.78137 136.68465 23087 ft 401 kts 165°
2026-05-05 09:59 35.75503 136.69623 23092 ft 401 kts 165°
2026-05-05 10:00 35.72875 136.70789 23098 ft 402 kts 165°
2026-05-05 10:00 35.70246 136.71961 23094 ft 401 kts 165°
2026-05-05 10:00 35.67622 136.73137 23091 ft 402 kts 165°
2026-05-05 10:00 35.64996 136.74316 23095 ft 402 kts 165°
2026-05-05 10:01 35.62362 136.75502 23095 ft 403 kts 165°
2026-05-05 10:01 35.59731 136.76688 23094 ft 403 kts 165°
2026-05-05 10:01 35.57100 136.77875 23096 ft 403 kts 165°
2026-05-05 10:01 35.54472 136.79061 23092 ft 403 kts 165°
2026-05-05 10:02 35.51827 136.80250 23092 ft 404 kts 165°
2026-05-05 10:02 35.49183 136.81438 23094 ft 404 kts 165°
2026-05-05 10:02 35.46554 136.82619 23094 ft 404 kts 165°
2026-05-05 10:02 35.43948 136.83790 23093 ft 404 kts 165°
2026-05-05 10:03 35.41303 136.84977 23097 ft 404 kts 165°
2026-05-05 10:03 35.38663 136.86161 23095 ft 404 kts 165°
2026-05-05 10:03 35.36017 136.87348 23094 ft 405 kts 165°
2026-05-05 10:03 35.33372 136.88532 23092 ft 404 kts 165°
2026-05-05 10:04 35.30725 136.89718 23089 ft 404 kts 165°
2026-05-05 10:04 35.28093 136.90946 23087 ft 407 kts 161°
2026-05-05 10:04 35.25655 136.92748 23087 ft 416 kts 145°
2026-05-05 10:04 35.23584 136.95258 23073 ft 422 kts 135°
2026-05-05 10:05 35.22343 136.97097 23082 ft 424 kts 132°
2026-05-05 10:05 35.20547 136.99962 23088 ft 425 kts 131°
2026-05-05 10:05 35.18762 137.02845 23089 ft 425 kts 131°
2026-05-05 10:05 35.16942 137.05698 23088 ft 425 kts 133°
2026-05-05 10:06 35.15093 137.08511 23088 ft 424 kts 133°
2026-05-05 10:06 35.13222 137.11302 23090 ft 424 kts 134°
2026-05-05 10:06 35.11339 137.14079 23086 ft 424 kts 134°
2026-05-05 10:06 35.09453 137.16845 23089 ft 423 kts 134°
2026-05-05 10:07 35.07561 137.19613 23088 ft 424 kts 134°
2026-05-05 10:07 35.05676 137.22375 23093 ft 424 kts 134°
2026-05-05 10:07 35.03797 137.25151 23096 ft 424 kts 134°
2026-05-05 10:07 35.01949 137.27895 23092 ft 424 kts 134°
2026-05-05 10:08 35.00080 137.30674 23087 ft 424 kts 134°
2026-05-05 10:08 34.98213 137.33453 23090 ft 424 kts 134°
2026-05-05 10:08 34.96343 137.36233 23093 ft 424 kts 134°
2026-05-05 10:08 34.94477 137.39005 23099 ft 423 kts 134°
2026-05-05 10:09 34.92608 137.41779 23094 ft 423 kts 134°
2026-05-05 10:09 34.90739 137.44550 23093 ft 423 kts 134°
2026-05-05 10:09 34.88871 137.47317 23088 ft 423 kts 134°
2026-05-05 10:09 34.87000 137.50087 23088 ft 423 kts 134°
2026-05-05 10:10 34.85128 137.52855 23094 ft 423 kts 134°
2026-05-05 10:10 34.83256 137.55623 23093 ft 423 kts 134°
2026-05-05 10:10 34.81386 137.58391 23092 ft 423 kts 134°
2026-05-05 10:10 34.79517 137.61159 23086 ft 424 kts 134°
2026-05-05 10:11 34.77643 137.63935 23106 ft 424 kts 134°
2026-05-05 10:11 34.75830 137.66761 23110 ft 427 kts 128°
2026-05-05 10:11 34.74505 137.70015 23103 ft 434 kts 111°
2026-05-05 10:11 34.73851 137.73562 23105 ft 438 kts 100°
2026-05-05 10:12 34.73526 137.77246 23107 ft 439 kts 96°
2026-05-05 10:12 34.73303 137.80955 23112 ft 439 kts 96°
2026-05-05 10:12 34.73074 137.84663 23104 ft 440 kts 96°
2026-05-05 10:12 34.72808 137.88362 23107 ft 440 kts 97°
2026-05-05 10:13 34.72503 137.92067 23107 ft 440 kts 98°
2026-05-05 10:13 34.72173 137.95763 23094 ft 440 kts 98°
2026-05-05 10:13 34.71826 137.99464 23105 ft 440 kts 98°
2026-05-05 10:13 34.71525 138.03167 23102 ft 441 kts 95°
2026-05-05 10:14 34.71407 138.06893 23101 ft 442 kts 92°
2026-05-05 10:14 34.71398 138.10626 23101 ft 442 kts 91°
2026-05-05 10:14 34.71430 138.14359 23097 ft 442 kts 90°
2026-05-05 10:14 34.71471 138.18091 23102 ft 442 kts 90°
2026-05-05 10:15 34.71505 138.21832 23093 ft 442 kts 91°
2026-05-05 10:15 34.71531 138.25566 23096 ft 442 kts 91°
2026-05-05 10:15 34.71549 138.29253 23119 ft 443 kts 91°
2026-05-05 10:15 34.71563 138.32998 23122 ft 443 kts 91°
2026-05-05 10:16 34.71573 138.36742 23119 ft 443 kts 91°
2026-05-05 10:16 34.71581 138.40483 23112 ft 443 kts 91°
2026-05-05 10:16 34.71588 138.44233 23121 ft 444 kts 91°
2026-05-05 10:16 34.71594 138.48001 23122 ft 445 kts 91°
2026-05-05 10:17 34.71599 138.51765 23122 ft 445 kts 91°
2026-05-05 10:17 34.71603 138.55540 23124 ft 445 kts 91°
2026-05-05 10:17 34.71605 138.59289 23124 ft 445 kts 91°
2026-05-05 10:17 34.71607 138.63062 23125 ft 445 kts 91°
2026-05-05 10:18 34.71607 138.66777 23130 ft 445 kts 91°
2026-05-05 10:18 34.71607 138.70538 23126 ft 445 kts 91°
2026-05-05 10:18 34.71605 138.74299 23126 ft 445 kts 91°
2026-05-05 10:18 34.71602 138.78055 23129 ft 444 kts 91°
2026-05-05 10:19 34.71590 138.81813 23125 ft 444 kts 91°
2026-05-05 10:19 34.71570 138.85574 23127 ft 446 kts 91°
2026-05-05 10:19 34.71547 138.89433 23003 ft 468 kts 91°
2026-05-05 10:19 34.71524 138.93497 22792 ft 487 kts 91°
2026-05-05 10:20 34.71506 138.97596 22394 ft 482 kts 91°
2026-05-05 10:20 34.71488 139.01656 22179 ft 478 kts 91°
2026-05-05 10:20 34.71469 139.05652 22138 ft 479 kts 91°
2026-05-05 10:20 34.71449 139.09697 22143 ft 479 kts 91°
2026-05-05 10:21 34.71428 139.13757 22127 ft 480 kts 91°
2026-05-05 10:21 34.71405 139.17838 21311 ft 482 kts 91°
2026-05-05 10:21 34.71382 139.21880 20430 ft 476 kts 91°
2026-05-05 10:21 34.71359 139.25872 19578 ft 469 kts 91°
2026-05-05 10:22 34.71334 139.29802 18768 ft 459 kts 90°
2026-05-05 10:22 34.71309 139.33643 17877 ft 448 kts 90°
2026-05-05 10:22 34.71283 139.37397 17003 ft 440 kts 90°
2026-05-05 10:22 34.71476 139.41070 16159 ft 434 kts 79°
2026-05-05 10:23 34.72359 139.44484 15370 ft 425 kts 65°
2026-05-05 10:23 34.73692 139.47656 14619 ft 419 kts 59°
2026-05-05 10:23 34.75162 139.50666 14230 ft 412 kts 58°
2026-05-05 10:23 34.76623 139.53601 13978 ft 394 kts 58°
2026-05-05 10:24 34.77971 139.56375 13780 ft 367 kts 59°
2026-05-05 10:24 34.79203 139.58975 13630 ft 342 kts 60°
2026-05-05 10:24 34.80339 139.61419 13490 ft 321 kts 60°
2026-05-05 10:24 34.81392 139.63713 13361 ft 301 kts 59°
2026-05-05 10:25 34.82380 139.65879 13240 ft 287 kts 60°
2026-05-05 10:25 34.83398 139.67986 13136 ft 287 kts 53°
2026-05-05 10:25 34.84809 139.69666 13125 ft 284 kts 30°
2026-05-05 10:25 34.86566 139.70862 13144 ft 304 kts 32°
2026-05-05 10:26 34.88329 139.72528 13155 ft 339 kts 39°
2026-05-05 10:26 34.90054 139.74379 13136 ft 318 kts 40°
2026-05-05 10:26 34.91622 139.76080 13119 ft 293 kts 40°
2026-05-05 10:26 34.93137 139.77689 13128 ft 286 kts 39°
2026-05-05 10:27 34.94655 139.79266 13115 ft 287 kts 38°
2026-05-05 10:27 34.96188 139.80835 13117 ft 288 kts 38°
2026-05-05 10:27 34.97730 139.82398 13116 ft 288 kts 38°
2026-05-05 10:27 34.99280 139.83960 13113 ft 288 kts 37°
2026-05-05 10:28 35.00828 139.85513 13115 ft 288 kts 38°
2026-05-05 10:28 35.02357 139.87045 13114 ft 287 kts 37°
2026-05-05 10:28 35.03900 139.88590 13112 ft 288 kts 37°
2026-05-05 10:28 35.05448 139.90137 13113 ft 288 kts 37°
2026-05-05 10:29 35.07001 139.91690 13113 ft 289 kts 37°
2026-05-05 10:29 35.08562 139.93250 12954 ft 292 kts 37°
2026-05-05 10:29 35.10116 139.94804 12578 ft 288 kts 37°
2026-05-05 10:29 35.11657 139.96346 12240 ft 286 kts 38°
2026-05-05 10:30 35.13192 139.97883 11904 ft 284 kts 37°
2026-05-05 10:30 35.14721 139.99413 11586 ft 284 kts 38°
2026-05-05 10:30 35.16242 140.00936 11326 ft 282 kts 37°
2026-05-05 10:30 35.17761 140.02459 11191 ft 283 kts 37°
2026-05-05 10:31 35.19265 140.03967 11128 ft 282 kts 37°
2026-05-05 10:31 35.20779 140.05486 11009 ft 281 kts 37°
2026-05-05 10:31 35.22284 140.06996 10908 ft 279 kts 37°
2026-05-05 10:31 35.23788 140.08506 10796 ft 279 kts 37°
2026-05-05 10:32 35.25292 140.10016 10673 ft 279 kts 38°
2026-05-05 10:32 35.26799 140.11530 10442 ft 280 kts 37°
2026-05-05 10:32 35.28283 140.13024 10036 ft 271 kts 37°
2026-05-05 10:32 35.29684 140.14436 9565 ft 253 kts 37°
2026-05-05 10:33 35.31036 140.15798 9181 ft 251 kts 37°
2026-05-05 10:33 35.32372 140.17141 8801 ft 247 kts 38°
2026-05-05 10:33 35.33693 140.18471 8435 ft 245 kts 38°
2026-05-05 10:33 35.34989 140.19777 8195 ft 242 kts 37°
2026-05-05 10:34 35.36347 140.21017 8108 ft 239 kts 27°
2026-05-05 10:34 35.37876 140.21728 8066 ft 234 kts
2026-05-05 10:34 35.39491 140.21784 8022 ft 232 kts 354°
2026-05-05 10:34 35.41099 140.21646 7951 ft 232 kts 353°
2026-05-05 10:35 35.42707 140.21483 7878 ft 231 kts 353°
2026-05-05 10:35 35.44297 140.21319 7701 ft 233 kts 353°
2026-05-05 10:35 35.45876 140.21157 7367 ft 219 kts 353°
2026-05-05 10:35 35.47388 140.21002 7147 ft 217 kts 353°
2026-05-05 10:36 35.48893 140.20846 7118 ft 217 kts 353°
2026-05-05 10:36 35.50399 140.20689 7111 ft 217 kts 353°
2026-05-05 10:36 35.51903 140.20533 7104 ft 217 kts 353°
2026-05-05 10:36 35.53391 140.20260 7103 ft 215 kts 345°
2026-05-05 10:37 35.54850 140.19797 6878 ft 216 kts 343°
2026-05-05 10:37 35.56289 140.19307 6498 ft 213 kts 342°
2026-05-05 10:37 35.57660 140.18689 6108 ft 216 kts 329°
2026-05-05 10:37 35.58831 140.17563 5729 ft 212 kts 306°
2026-05-05 10:38 35.59646 140.16065 5619 ft 211 kts 299°
2026-05-05 10:38 35.60275 140.14436 5599 ft 212 kts 282°
2026-05-05 10:38 35.60444 140.12642 5351 ft 210 kts 269°
2026-05-05 10:38 35.60472 140.10868 5128 ft 207 kts 269°
2026-05-05 10:39 35.60481 140.09097 5108 ft 208 kts 268°
2026-05-05 10:39 35.60484 140.07306 5102 ft 210 kts 268°
2026-05-05 10:39 35.60485 140.05500 4739 ft 209 kts 268°
2026-05-05 10:39 35.60485 140.03716 4294 ft 207 kts 266°
2026-05-05 10:40 35.60482 140.01952 3852 ft 206 kts 266°
2026-05-05 10:40 35.60481 140.00274 3360 ft 186 kts 266°
2026-05-05 10:40 35.60478 139.98692 2941 ft 185 kts 265°
2026-05-05 10:40 35.60470 139.97137 2535 ft 186 kts 264°
2026-05-05 10:41 35.60462 139.95550 2177 ft 186 kts 264°
2026-05-05 10:41 35.60453 139.93960 1885 ft 186 kts 264°
2026-05-05 10:41 35.60444 139.92371 1601 ft 187 kts 264°
2026-05-05 10:41 35.60436 139.90786 1336 ft 184 kts 264°
2026-05-05 10:42 35.60424 139.87756 1074 ft 166 kts 264°
2026-05-05 10:42 35.60415 139.86340 1119 ft 164 kts 263°
2026-05-05 10:42 35.60399 139.84997 1091 ft 152 kts 256°
2026-05-05 10:43 35.60038 139.83845 1012 ft 139 kts 229°
2026-05-05 10:43 35.59540 139.82805 953 ft 147 kts 244°
2026-05-05 10:43 35.59222 139.81667 836 ft 146 kts 250°
2026-05-05 10:43 35.58889 139.80494 677 ft 143 kts 240°
2026-05-05 10:44 35.58437 139.79412 519 ft 142 kts 231°
2026-05-05 10:44 35.57801 139.78565 328 ft 133 kts 213°
2026-05-05 10:44 35.57028 139.77938 183 ft 133 kts 208°
2026-05-05 10:44 35.56283 139.77282 44 ft 120 kts 204°
2026-05-05 10:45 35.55825 139.76948 35 ft 35 kts 203°
2026-05-05 10:45 35.55685 139.76904 33 ft 8 kts 185°
2026-05-05 10:45 35.55646 139.76904 32 ft 3 kts 170°
2026-05-05 10:45 35.55639 139.76909 31 ft 1 kts 150°
2026-05-05 10:46 35.55627 139.76922 32 ft 5 kts 141°
2026-05-05 10:46 35.55618 139.76952 31 ft 5 kts 99°
2026-05-05 10:46 35.55624 139.76998 28 ft 5 kts 66°
2026-05-05 10:46 35.55643 139.77023 30 ft 3 kts 41°
2026-05-05 10:47 35.55659 139.77040 31 ft 3 kts 39°
2026-05-05 10:47 35.55679 139.77059 30 ft 4 kts 39°
2026-05-05 10:47 35.55727 139.77107 33 ft 16 kts 39°
2026-05-05 10:47 35.55833 139.77226 30 ft 19 kts 62°
2026-05-05 10:48 35.55846 139.77370 30 ft 15 kts 95°
2026-05-05 10:48 35.55822 139.77433 28 ft 3 kts 135°
2026-05-05 10:48 35.55792 139.77447 29 ft 11 kts 157°
2026-05-05 10:48 35.55679 139.77512 29 ft 24 kts 150°
2026-05-05 10:49 35.55518 139.77625 29 ft 26 kts 150°
2026-05-05 10:49 35.55366 139.77737 29 ft 24 kts 148°
2026-05-05 10:49 35.55229 139.77837 30 ft 22 kts 150°
2026-05-05 10:49 35.55105 139.77924 30 ft 20 kts 150°
2026-05-05 10:50 35.54992 139.78005 30 ft 17 kts 141°
2026-05-05 10:50 35.54972 139.78045 29 ft 4 kts 105°
2026-05-05 10:50 35.54981 139.78098 29 ft 9 kts 64°
2026-05-05 10:50 35.55011 139.78162 30 ft 8 kts 60°
2026-05-05 10:51 35.55024 139.78190 31 ft 1 kts 60°
2026-05-05 10:51 35.55025 139.78191 31 ft 0 kts 60°